FW5431 Weather Reports


Display with metric or nautical units.
time (UTC)temp
F
wind
direction
speed
MPH
gust
MPH
rain 1hr
in
rain 24hr
in
rain mn
in
humidity
%
barometer
mb
20260505101559 61 245 0.0 0.0 0.00 0.00 0.00 96 1019.1
20260505100137 61 244 0.0 0.0 0.00 0.00 0.00 96 1018.9
20260505100004 61 238 0.0 0.0 0.00 0.00 0.00 96 1018.9
20260505094558 60 238 0.0 0.0 0.00 0.00 0.00 95 1018.7
20260505093058 60 238 0.0 0.0 0.00 0.00 0.00 95 1018.5
20260505091618 60 238 0.0 0.0 0.00 0.00 0.00 95 1018.3
20260505084602 60 238 0.0 0.0 0.00 0.00 0.00 95 1018.0
20260505083057 61 238 0.0 0.0 0.00 0.00 0.00 95 1017.8
20260505081558 61 238 0.0 0.0 0.00 0.00 0.00 95 1017.8
20260505080058 61 238 0.0 0.0 0.00 0.00 0.00 95 1017.8
20260505080000 61 238 0.0 0.0 0.00 0.00 0.00 95 1017.8
20260505074558 61 238 0.0 0.0 0.00 0.00 0.00 95 1017.7
20260505073101 61 238 0.0 0.0 0.00 0.00 0.00 94 1017.6
20260505071558 61 238 0.0 0.0 0.00 0.00 0.00 94 1017.6
20260505070059 62 238 0.0 0.0 0.00 0.00 0.00 94 1017.7
20260505070002 62 238 0.0 0.0 0.00 0.00 0.00 94 1017.7
20260505064608 62 238 0.0 0.0 0.00 0.00 0.00 94 1017.6
20260505063058 62 238 0.0 0.0 0.00 0.00 0.00 94 1017.7
20260505061557 62 238 0.0 0.0 0.00 0.00 0.00 94 1017.8
20260505060058 62 238 0.0 0.0 0.00 0.00 0.00 94 1017.7
20260505060000 62 238 0.0 0.0 0.00 0.00 0.00 94 1017.7
20260505054620 63 238 0.0 0.0 0.00 0.00 0.00 93 1017.6
20260505053058 63 238 0.0 0.0 0.00 0.00 0.00 93 1017.8
20260505051558 63 238 0.0 0.0 0.00 0.00 0.00 93 1018.1
20260505041609 64 238 0.0 0.0 0.00 0.00 0.00 92 1018.8
20260505040103 64 238 0.0 0.0 0.00 0.00 0.00 92 1018.9
20260505040004 64 238 0.0 0.0 0.00 0.00 0.00 92 1018.9
20260505034559 64 238 0.0 0.0 0.00 0.00 0.00 92 1018.8
20260505033100 65 238 0.0 0.0 0.00 0.00 0.00 92 1018.9
20260505031605 65 238 0.0 0.0 0.00 0.00 0.00 91 1018.9
20260505030107 65 238 0.0 0.0 0.00 0.00 0.00 91 1019.0
20260505030003 65 238 0.0 0.0 0.00 0.00 0.00 91 1018.9
20260505024617 65 238 0.0 0.0 0.00 0.00 0.00 91 1019.3
20260505023111 66 238 0.0 0.0 0.00 0.00 0.00 91 1019.5
20260505021600 66 238 0.0 0.0 0.00 0.00 0.00 91 1019.3
20260505020106 66 238 0.0 0.0 0.00 0.00 0.00 90 1019.3
20260505020002 66 238 0.0 0.0 0.00 0.00 0.00 90 1019.3
20260505014558 66 238 0.0 0.0 0.00 0.00 0.00 90 1019.4
20260505013059 66 238 0.0 0.0 0.00 0.00 0.00 90 1019.5
20260505011559 66 238 0.0 0.0 0.00 0.00 0.00 90 1019.6
20260505010113 66 238 0.0 0.0 0.00 0.00 0.00 90 1019.3
20260505010001 66 238 0.0 0.0 0.00 0.00 0.00 90 1019.3
20260505004559 66 238 0.0 3.0 0.00 0.00 0.00 90 1019.2
20260505003116 66 240 0.0 0.0 0.00 0.00 0.00 90 1019.0
20260505001559 66 240 0.0 2.0 0.00 0.00 0.00 90 1018.7
20260505000002 66 240 0.0 3.0 0.00 0.00 0.00 90 1018.8
20260504234559 66 238 0.0 2.0 0.00 0.00 0.00 89 1018.7
20260504233108 66 238 0.0 0.0 0.00 0.00 0.00 89 1018.3
20260504231558 66 238 0.0 2.0 0.00 0.00 0.00 89 1018.5
20260504230115 66 238 0.0 2.0 0.00 0.00 0.00 89 1018.4
20260504230002 66 238 0.0 2.0 0.00 0.00 0.00 89 1018.4
20260504224626 67 238 1.0 3.0 0.00 0.00 0.00 88 1018.2
20260504223106 67 236 0.0 2.0 0.00 0.00 0.00 88 1018.2
20260504221558 67 243 1.0 3.0 0.00 0.00 0.00 88 1018.2
20260504220101 67 326 0.0 1.0 0.00 0.00 0.00 87 1018.1
20260504220002 67 326 0.0 1.0 0.00 0.00 0.00 87 1018.1
20260504214559 67 326 0.0 3.0 0.00 0.00 0.00 87 1017.7
20260504213103 68 214 1.0 5.0 0.00 0.00 0.00 87 1017.7
20260504211602 68 161 1.0 2.0 0.00 0.00 0.00 87 1017.3
20260504210104 68 255 0.0 2.0 0.00 0.00 0.00 87 1017.3
20260504210005 68 255 0.0 2.0 0.00 0.00 0.00 87 1017.3
20260504204602 69 254 0.0 0.0 0.00 0.00 0.00 86 1017.3
20260504203059 69 255 0.0 0.0 0.00 0.00 0.00 85 1016.9
20260504201610 70 255 1.0 2.0 0.00 0.00 0.00 84 1017.0
20260504200104 71 255 1.0 4.0 0.00 0.00 0.00 83 1016.8
20260504200004 71 255 1.0 4.0 0.00 0.00 0.00 83 1016.8
20260504194558 72 281 0.0 2.0 0.00 0.00 0.00 81 1016.3
20260504193058 72 281 1.0 3.0 0.00 0.00 0.00 80 1016.5
20260504191614 72 281 0.0 2.0 0.00 0.00 0.00 79 1016.5
20260504190059 73 281 0.0 2.0 0.00 0.00 0.00 77 1016.7
20260504190001 73 281 0.0 2.0 0.00 0.00 0.00 76 1016.7
20260504184600 73 280 0.0 2.0 0.00 0.00 0.00 77 1016.5
20260504183058 74 276 0.0 3.0 0.00 0.00 0.00 73 1016.5
20260504181602 74 37 1.0 4.0 0.00 0.00 0.00 71 1016.8
20260504180059 73 274 0.0 4.0 0.00 0.00 0.00 72 1017.2
20260504180001 73 274 1.0 4.0 0.00 0.00 0.00 72 1017.2
20260504174559 74 232 2.0 4.0 0.00 0.00 0.00 71 1017.5
20260504173059 73 254 1.0 3.0 0.00 0.00 0.00 72 1017.3
20260504171600 73 79 1.0 3.0 0.00 0.00 0.00 74 1017.5
20260504160105 72 23 2.0 5.0 0.00 0.00 0.00 74 1018.6
20260504120131 64 77 0.0 0.0 0.00 0.00 0.00 86 1020.8